Location: Spruce Knob
(38.6995°N, 79.5330°W)
Time: 22:16:45
(UTC-04:00)

A-11 Canister half - Pass Details

Date: 30 January 2022
Orbit: 1513 x 1686 km, 47.2° (Epoch: 24 May)

Event Time Altitude Azimuth Distance (km) Brightness Sun altitude
Rises 18:18:59 0° 279° (W) 4,755 12.9 -8.4°
Reaches altitude 10° 18:22:15 10° 284° (WNW) 3,748 12.1 -9.1°
Maximum altitude 18:31:22 51° 359° (N) 1,869 9.4 -10.8°
Enters shadow 18:39:06 15° 71° (ENE) 3,315 10.1 -12.2°
Drops below altitude 10° 18:40:18 10° 74° (ENE) 3,672 - -12.5°
Sets 18:43:29 0° 80° (E) 4,652 - -13.1°
